Atqasuk Edward Burnell Sr Mem, AK

2:29 PM AKST on December 08, 2019 (GMT -0900)
Atqasuk Edward Burnell Sr Mem

Weather History for PATQ - September, 2019

Change the Weather History Date:

Wednesday, September 11, 2019

  Actual Average (PABR) Record (PABR)
Temperature  
Mean Temperature 49 °F -  
Max Temperature 57 °F 36 °F 60 °F (2007)
Min Temperature 43 °F 30 °F 21 °F (1931)
Degree Days  
Heating Degree Days 16    
Moisture  
Dew Point 46 °F    
Average Humidity 92    
Maximum Humidity 100    
Minimum Humidity 72    
Precipitation  
Precipitation 0.00 in - - ()
Sea Level Pressure  
Sea Level Pressure 29.73 in    
Wind  
Wind Speed 7 mph (SSE)    
Max Wind Speed 12 mph    
Max Gust Speed -    
Visibility 8 miles    
Events Fog    
Averages and records for this station are not official NWS values.
T = Trace of Precipitation, MM = Missing Value Source: NWS Daily Summary

Daily Weather History Graph

Daily Weather History Graph

Search for Another Location

Airport or City:

Astronomy

Sep. 11, 2019 Rise Set
Actual Time 7:24 AM AKDT 9:25 PM AKDT
Civil Twilight 6:16 AM AKDT 10:32 PM AKDT
Nautical Twilight 4:34 AM AKDT 12:11 AM AKDT
Astronomical Twilight Sun does not rise Sun does not rise
Moon 10:36 PM AKDT (9/11) 2:08 AM AKDT (9/11)
Length of Visible Light 16h 15m
Length of Day
14h 00m
Waxing Gibbous, 95% of the Moon is Illuminated
Sep 11
Waxing Gibbous
Sep 13
Full
Sep 21
Last Quarter
Sep 28
New
Oct 5
First Quarter

Hourly Weather History & Observations

Time (AKDT) Temp. Windchill Dew Point Humidity Pressure Visibility Wind Dir Wind Speed Gust Speed Precip Events Conditions
12:56 AM 48.9 °F - 46.0 °F 90% 29.73 in 10.0 mi SE 10.4 mph - N/A   Overcast
1:56 AM 48.0 °F - 46.0 °F 93% 29.74 in 10.0 mi ESE 9.2 mph - N/A   Overcast
2:56 AM 48.0 °F - 46.0 °F 93% 29.74 in 10.0 mi SE 11.5 mph - N/A   Overcast
4:56 AM 45.0 °F 40.1 °F 43.0 °F 93% 29.73 in 10.0 mi South 9.2 mph - N/A   Overcast
5:56 AM 44.1 °F 40.8 °F 43.0 °F 96% 29.74 in 10.0 mi South 5.8 mph - 0.00 in   Overcast
6:56 AM 43.0 °F 40.3 °F 42.1 °F 97% 29.74 in 10.0 mi SSE 4.6 mph - N/A   Overcast
7:56 AM 43.0 °F 41.3 °F 43.0 °F 100% 29.74 in 10.0 mi South 3.5 mph - N/A   Overcast
8:56 AM 43.0 °F 40.3 °F 43.0 °F 100% 29.74 in 7.0 mi SSE 4.6 mph - N/A   Mostly Cloudy
9:56 AM 45.0 °F 41.8 °F 45.0 °F 100% 29.75 in 0.2 mi SW 5.8 mph - N/A Fog Fog
10:33 AM 46.4 °F 43.5 °F 46.4 °F 100% 29.73 in 0.5 mi SSW 5.8 mph - N/A Fog Fog
10:39 AM 46.4 °F 43.5 °F 46.4 °F 100% 29.72 in 1.0 mi SSW 5.8 mph - N/A   Overcast
10:56 AM 46.9 °F - 46.0 °F 97% 29.75 in 1.2 mi WSW 6.9 mph - N/A   Overcast
11:04 AM 46.4 °F 42.9 °F 46.4 °F 100% 29.72 in 3.0 mi SW 6.9 mph - N/A   Overcast
11:30 AM 46.4 °F 42.9 °F 46.4 °F 100% 29.73 in 1.5 mi SSW 6.9 mph - N/A   Overcast
11:40 AM 46.4 °F 42.9 °F 46.4 °F 100% 29.73 in 5.0 mi SW 6.9 mph - N/A   Overcast
11:56 AM 48.0 °F - 46.9 °F 96% 29.75 in 4.0 mi WSW 5.8 mph - N/A   Overcast
12:29 PM 48.2 °F - 46.4 °F 93% 29.73 in 10.0 mi Calm Calm - N/A   Overcast
12:56 PM 48.9 °F - 46.9 °F 93% 29.75 in 10.0 mi West 4.6 mph - N/A   Overcast
1:33 PM 50.0 °F - 48.2 °F 94% 29.73 in 10.0 mi SSW 4.6 mph - N/A   Overcast
1:56 PM 52.0 °F - 46.9 °F 83% 29.75 in 10.0 mi Calm Calm - N/A   Overcast
2:56 PM 53.1 °F - 46.9 °F 80% 29.75 in 7.0 mi Calm Calm - N/A   Mostly Cloudy
3:56 PM 54.0 °F - 48.0 °F 80% 29.74 in 10.0 mi ENE 4.6 mph - N/A   Overcast
4:56 PM 55.0 °F - 48.0 °F 77% 29.74 in 10.0 mi East 8.1 mph - N/A   Overcast
5:56 PM 55.9 °F - 48.0 °F 75% 29.73 in 10.0 mi East 8.1 mph - N/A   Clear
6:56 PM 55.0 °F - 46.0 °F 72% 29.72 in 10.0 mi East 8.1 mph - N/A   Clear
8:56 PM 51.1 °F - 46.0 °F 83% 29.71 in 10.0 mi East 9.2 mph - N/A   Clear
9:56 PM 48.9 °F - 46.0 °F 90% 29.71 in 10.0 mi East 10.4 mph - N/A   Mostly Cloudy
10:56 PM 46.9 °F - 45.0 °F 93% 29.71 in 10.0 mi East 10.4 mph - N/A   Clear
11:56 PM 46.0 °F 41.0 °F 44.1 °F 93% 29.72 in 10.0 mi East 10.4 mph - N/A   Clear